Regional Weather Roundup
Issued by NWS

Home | Current Version | Previous Version | Graphics & Text | Print | Product List | Glossary On
Versions: 1 2 3 4 5 6 7 8 9 10 11 12 13 14 15 16 17 18 19 20 21 22 23 24 25 26 27 28 29 30 31 32 33 34 35 36 37 38 39 40 41 42 43 44 45 46 47 48 49 50
813
ASUS45 KBOU 201107
RWRCO

WEATHER ROUNDUP FOR COLORADO
NATIONAL WEATHER SERVICE DENVER/BOULDER CO
500 AM MDT WED SEP 20 2017

NOTE: "FAIR" INDICATES FEW OR NO CLOUDS BELOW 12000 FEET WITH NO
SIGNIFICANT WEATHER AND/OR OBSTRUCTIONS TO VISIBILITY.

COZ001>005-013-030-031-201200-
...NORTHWEST COLORADO...

CITY           SKY/WX    TMP DP  RH WIND       PRES   REMARKS
CRAIG          CLOUDY    41  35  79 VRB3      30.04R
HAYDEN         CLOUDY    37  34  89 E10       30.06S
MEEKER         CLOUDY    38  37  97 CALM      30.03R
RABBIT EARS PA CLOUDY    32  30  93 W12G20    30.11S WCI  23
STEAMBOAT SPGS CLOUDY    35  34  97 CALM      30.06S
WALDEN         CLOUDY    32  30  93 E6        30.07S WCI  26
$$

COZ006>008-011-201200-
...WEST CENTRAL VALLEYS...

CITY           SKY/WX    TMP DP  RH WIND       PRES   REMARKS
GRAND JUNCTION FAIR      52  37  56 SE3       29.92R
MONTROSE       FAIR      49  34  56 E9        29.99R
EAGLE          CLOUDY    44  32  62 W6        30.05R
RIFLE          FAIR      46  36  68 SE5       29.98R
DELTA          FAIR      51  37  57 NE6       29.95R
NUCLA          FAIR      57  28  33 SW6       30.02R
$$

COZ017>023-064>068-201200-
...SOUTHWEST COLORADO...

CITY           SKY/WX    TMP DP  RH WIND       PRES   REMARKS
DURANGO        FAIR      41  28  60 N5        30.08R
CORTEZ         FAIR      46  30  53 NE9       30.03R
PAGOSA SPRINGS FAIR      41  23  48 CALM      30.14S
TELLURIDE      FAIR      46  26  45 CALM      30.19S
WOLF CREEK PAS FAIR      32  16  51 S13G22    30.35R WCI  22
$$

COZ009-010-012-014-032>034-037-058>063-201200-
...CENTRAL COLORADO...

CITY           SKY/WX    TMP DP  RH WIND       PRES   REMARKS
ASPEN          FAIR      48  33  56 VRB5      30.03R
BUENA VISTA    FAIR      55  25  31 S6        30.03R
COPPER MTN     FAIR      41  23  48 W10G22    30.22S
BERTHOUD PASS  FAIR      34  27  75 W40G55    30.18S WCI  18
COTTONWOOD PAS FAIR      54  23  30 SW10G25   30.12R
GUNNISON       FAIR      42  24  49 N3        30.07R
KREMMLING      CLOUDY    43  34  70 SE3       30.07R
LEADVILLE      FAIR      40  22  48 VRB6      30.10R
MONARCH PASS   FAIR      37  25  60 W39G47    30.35R
SALIDA         FAIR      61  24  24 SW14G24   30.09S
SUNLIGHT       FAIR      37  28  70 SW15G24   30.19R
WILKERSON PASS FAIR      41  21  45 S9G18     30.21R
$$

COZ069>075-201200-
...SAN LUIS VALLEY/SANGRE DE CRISTO MOUNTAINS...

CITY           SKY/WX    TMP DP  RH WIND       PRES   REMARKS
ALAMOSA        FAIR      49  22  34 S14       30.08R
DEL NORTE      FAIR      43  20  39 W6        30.11R
LA VETA PASS   FAIR      45  16  31 MISG      30.29R
SAGUACHE       FAIR      34  27  75 NW3       30.10R
$$

COZ035-036-038>040-201200-
...NORTHERN COLORADO FRONT RANGE...

CITY           SKY/WX    TMP DP  RH WIND       PRES   REMARKS
DENVER INTL AP FAIR      43  30  60 SE15      29.96R
DMNS CITY PARK   N/A     46  32  57 SE10      29.96S
AURORA         PTCLDY    44  32  63 SE17      29.97R
FRONT RANGE AP FAIR      45  32  61 SE16      29.97R
ERIE MUNI ARPT FAIR      46  32  58 S6        30.01R
BOULDER MUN AP FAIR      45  32  61 CALM      29.95R
CENTENNIAL     FAIR      43  32  65 SE7       29.96R
BROOMFIELD     FAIR      45  32  61 S5        29.97R
FORT COLLINS   FAIR      45  34  65 S3        29.96R
LONGMONT       MOCLDY    41  33  73 CALM      29.97R
$$

COZ041-046-047-076>085-087-088-201200-
...PIKES PEAK/PALMER DIVIDE AND SOUTHERN FOOTHILLS...

CITY           SKY/WX    TMP DP  RH WIND       PRES   REMARKS
COLO. SPRINGS  MOCLDY    43  31  62 SE8       30.04R
A. F. ACADEMY  FAIR      43  30  60 CALM      30.01R
SCHRIEVER AFB  FAIR      39  29  69 S8        30.04R
CHEYENNE MTN   NOT AVBL
ELLICOTT         N/A    N/A N/A N/A CALM      30.02R
FALCON         FAIR      40  29  65 S12       30.05R
FORT CARSON    FAIR      44  31  58 S18       30.01R
LIMON          FAIR      40  31  70 W8        29.99R
MONUMENT HILL  FAIR      43  30  61 S18       30.01S
CANON CITY     CLEAR     45  34  65 NE8       30.02R
WALSENBURG     FAIR      45  32  61 CALM      30.03R
TRINIDAD       FAIR      41  35  79 NW7       30.03R
$$

COZ042>045-048>051-090-091-201200-
...NORTHEAST COLORADO...

CITY           SKY/WX    TMP DP  RH WIND       PRES   REMARKS
GREELEY ARPT   FAIR      45  34  65 SW6       29.96R
AKRON          FAIR      46  25  43 N7        29.95R
BURLINGTON     FAIR      42  31  64 NW9       29.95R
WRAY           FAIR      37  32  81 CALM      29.94R
YUMA           FAIR      34  30  86 SW6       29.94R WCI  29
STERLING       FAIR      39  32  75 W6        29.92R
HOLYOKE        NOT AVBL
FORT MORGAN    FAIR      44  30  57 CALM      29.95S
$$

COZ086-089-092>099-201200-
...SOUTHEAST COLORADO...

CITY           SKY/WX    TMP DP  RH WIND       PRES   REMARKS
PUEBLO         FAIR      42  28  57 CALM      30.01R
LA JUNTA       FAIR      45  33  63 W10       29.99R
LAMAR          FAIR      39  30  70 SW5       29.94R
SPRINGFIELD    NOT AVBL
$$




USA.gov is the U.S. government's official web portal to all federal, state and local government web resources and services.